Flag for U.S.A. Weather past 2 weeks in Beaumont, Texas, U.S.A.

Now
84 °F

Overcast.


Feels Like: 90 °F
Forecast: 76 / 85 °F
Wind: 8 mph from Northwest

Location: Jefferson County Airport

Current Time: Aug 1, 2014 at 6:59:58 PM

Latest Report: Aug 1, 2014 at 5:53 PM


Visibility: 10 mi

Pressure: 29.91 "Hg

Humidity: 70%

Dew point: 73 °F

Location of BeaumontLocation

Historic Weather in Beaumont — Graph

°F

Beaumont temperature yesterday

Maximum temperature yesterday: 92 °F (at 3:53 PM)
Minimum temperature yesterday: 77 °F (at 4:53 AM)
Average temperature yesterday: 83 °F

Past Weeks' High & Low Weather Summary

 TemperatureHumidityPressure
High94 °F (Jul 21, 2:53 PM)97% (Jul 18, 8:00 AM)30.12 "Hg (Jul 18, 8:00 AM)
Low72 °F (Jul 19, 7:00 AM)46% (Jul 23, 3:53 PM)29.82 "Hg (Jul 18, 5:53 AM)
Average82 °F78%29.99 "Hg
* Reported Jul 17 5:53 PM — Aug 1 5:53 PM, Beaumont, Weather by CustomWeather, © 2014

Note: Actual official high and low records may vary slightly from our data, if they occured in-between our weather recording intervals... More about our weather records

Advertising

Beaumont weather history for previous 24 hours

 ConditionsComfort  
Time TempWeatherWind HumidityBarometerVisibility
5:53 PM
Aug 1
84 °FOvercast.8 mph70%29.91 "Hg10 mi
4:53 PM85 °FOvercast.10 mph68%29.91 "Hg10 mi
3:53 PM88 °FScattered clouds.10 mph63%29.92 "Hg10 mi
2:53 PM88 °FPartly sunny.9 mph65%29.93 "Hg10 mi
2:00 PM88 °FPassing clouds.9 mph65%29.95 "Hg10 mi
12:53 PM85 °FMostly cloudy.10 mph72%29.96 "Hg10 mi
11:53 AM84 °FMostly cloudy.7 mph74%29.97 "Hg10 mi
10:53 AM83 °FPartly sunny.6 mph77%29.97 "Hg10 mi
9:53 AM81 °FMore clouds than sun.3 mph82%29.97 "Hg10 mi
8:53 AM77 °FMostly cloudy.No wind88%29.97 "Hg10 mi
8:02 AM75 °FThundershowers. Overcast.3 mph90%29.96 "Hg10 mi
6:53 AM77 °FMostly cloudy.6 mph90%29.93 "Hg10 mi
5:53 AM77 °FMostly cloudy.3 mph90%29.94 "Hg10 mi
4:53 AM76 °FPassing clouds.3 mph91%29.92 "Hg10 mi
4:03 AM79 °FThundershowers. Partly cloudy.6 mph90%29.93 "Hg10 mi
3:53 AM79 °FLight rain. Partly cloudy.3 mph90%29.92 "Hg10 mi
2:53 AM79 °FPassing clouds.5 mph90%29.93 "Hg10 mi
1:53 AM78 °FClear.5 mph90%29.93 "Hg10 mi
12:53 AM79 °FLight rain. Partly cloudy.5 mph88%29.95 "Hg10 mi
11:53 PM
Jul 31
79 °FLight rain. Passing clouds.5 mph94%29.95 "Hg7 mi
10:53 PM81 °FClear.5 mph85%29.95 "Hg10 mi
9:53 PM81 °FClear.7 mph85%29.93 "Hg10 mi
8:53 PM82 °FPartly sunny.6 mph82%29.93 "Hg10 mi
7:53 PM83 °FSunny.10 mph77%29.90 "Hg10 mi
6:53 PM85 °FSunny.8 mph72%29.91 "Hg10 mi
Weather by CustomWeather, © 2014

See weather overviewHow to use our weather pages